Regional Weather Roundup
Issued by NWS Albany, NY

Home | Current Version | Previous Version | Graphics & Text | Print | Product List | Glossary On
Versions: 1 2 3 4 5 6 7 8 9 10 11 12 13 14 15 16 17 18 19 20 21 22 23 24 25 26
000
ASUS41 KALY 291110
RWRALY

NEW YORK STATE HOURLY WEATHER ROUNDUP
NATIONAL WEATHER SERVICE ALBANY NY
700 AM EDT WED OCT 29 2014

NOTE: "FAIR" INDICATES FEW OR NO CLOUDS BELOW 12,000 FEET WITH NO
SIGNIFICANT WEATHER AND/OR NO OBSTRUCTIONS TO VISIBILITY.

NYZ032-033-038>043-046>054-057>066-NYZ062>081-291200-
EAST


CITY           SKY/WX    TMP DP  RH WIND       PRES   REMARKS
ALBANY         LGT RAIN  57  55  93 CALM      29.85R FOG
GLENS FALLS    LGT RAIN  56  52  86 S8        29.81S
POUGHKEEPSIE   MOCLDY    50  47  89 CALM      29.85F
NEWBURGH       MOCLDY    54  54 100 CALM      29.87F
MONTGOMERY     CLOUDY    50  47  89 CALM      29.85F
WHITE PLAINS   MOCLDY    55  53  93 CALM      29.87F
ISLIP          CLOUDY    62  59  90 SW10      29.88S
NEW YORK CITY  MOCLDY    64  57  78 SW7       29.87F
CENTRAL PARK   MOCLDY    64  56  75 W7        29.90S
$$

NYZ005>009-017-018-044>046-055-056-291200-
CENTRAL


CITY           SKY/WX    TMP DP  RH WIND       PRES   REMARKS
FULTON         CLOUDY    53  44  71 W9        29.88R
SYRACUSE       CLOUDY    55  48  77 SW8       29.87R
ROME           CLOUDY    55  49  80 W8        29.88R
ELMIRA         CLOUDY    55  47  74 SW3       29.90R
BINGHAMTON     LGT RAIN  53  49  86 NW7       29.89R
MONTICELLO     CLOUDY    54  54 100 SW3       29.90S
$$

NYZ026>034-041>043-291200-
NORTH


CITY           SKY/WX    TMP DP  RH WIND       PRES   REMARKS
WATERTOWN      CLOUDY    55  46  71 SW14      29.84R
FORT DRUM      NOT AVBL
MASSENA        CLOUDY    55  53  93 S8        29.78S
SARANAC LAKE   MOCLDY    49  48  97 SW6       29.80R FOG
PLATTSBURGH    FOG       48  48 100 N3        29.78S VSB 3/4
$$

NYZ001>004-010>016-019>021-291200-
WEST


CITY           SKY/WX    TMP DP  RH WIND       PRES   REMARKS
NIAGARA FALLS  MOCLDY    48  37  65 W9        29.87F
BUFFALO        CLOUDY    51  35  54 W9        29.88S
DUNKIRK        CLOUDY    51  42  71 SW9       29.90S
JAMESTOWN      CLOUDY    45  39  81 S8        29.92S
WELLSVILLE     MOCLDY    46  41  82 W5        29.92S
ROCHESTER      CLOUDY    51  38  60 W8        29.88S
PENN YAN       CLOUDY    52  46  80 SW5       29.89S
$$

             KEY
       WCI = WIND CHILL INDEX
       VSB = VISIBILITY
       HX  = HEAT INDEX
$$



USA.gov is the U.S. government's official web portal to all federal, state and local government web resources and services.